KI0MQ Weather Reports


time (UTC)temp
C
wind
direction
speed
KPH
gust
KPH
rain 1hr
cm
rain 24hr
cm
rain mn
cm
humidity
%
barometer
mb
20260901132004 25 195 0.0 3.2 0.00 0.00 0.00 84 1013.1
20260901131508 25 204 0.0 6.4 0.00 0.00 0.00 85 1013.1
20260901131003 25 204 0.0 6.4 0.00 0.00 0.00 85 1013.1
20260901130008 25 206 0.0 3.2 0.00 0.00 0.00 84 1013.1
20260901125503 24 196 0.0 3.2 0.00 0.00 0.00 84 1012.9
20260901125004 24 193 0.0 3.2 0.00 0.00 0.00 85 1013.0
20260901124508 24 202 0.0 4.8 0.00 0.00 0.00 85 1012.9
20260901123504 24 204 0.0 3.2 0.00 0.00 0.00 86 1012.7
20260901123007 24 190 0.0 4.8 0.00 0.00 0.00 86 1012.7
20260901122504 24 196 0.0 4.8 0.00 0.00 0.00 86 1012.6
20260901122004 23 210 0.0 3.2 0.00 0.00 0.00 86 1012.4
20260901121507 23 202 0.0 1.6 0.00 0.00 0.00 86 1012.4
20260901121003 23 213 0.0 1.6 0.00 0.00 0.00 87 1012.3
20260901120008 23 0 0.0 0.0 0.00 0.00 0.00 89 1012.2
20260901115503 23 0 0.0 0.0 0.00 0.00 0.00 89 1012.2
20260901115003 23 0 0.0 0.0 0.00 0.00 0.00 89 1012.3
20260901114508 23 0 0.0 0.0 0.00 0.00 0.00 89 1012.3
20260901114003 23 0 0.0 0.0 0.00 0.00 0.00 90 1012.2
20260901113503 23 0 0.0 0.0 0.00 0.00 0.00 90 1012.3
20260901112503 23 0 0.0 0.0 0.00 0.00 0.00 90 1012.4
20260901111508 23 0 0.0 0.0 0.00 0.00 0.00 90 1012.3
20260901111003 23 0 0.0 0.0 0.00 0.00 0.00 90 1012.3
20260901110503 23 0 0.0 0.0 0.00 0.00 0.00 90 1012.4
20260901110008 23 0 0.0 0.0 0.00 0.00 0.00 90 1012.5
20260901105503 24 0 0.0 0.0 0.00 0.00 0.00 90 1012.5
20260901105003 24 0 0.0 0.0 0.00 0.00 0.00 90 1012.4
20260901104508 24 0 0.0 0.0 0.00 0.00 0.00 90 1012.5
20260901104003 24 0 0.0 0.0 0.00 0.00 0.00 90 1012.5
20260901103503 24 0 0.0 0.0 0.00 0.00 0.00 90 1012.5
20260901103008 24 221 0.0 1.6 0.00 0.00 0.00 90 1012.4
20260901102503 24 220 0.0 1.6 0.00 0.00 0.00 90 1012.6
20260901102003 24 215 0.0 1.6 0.00 0.00 0.00 90 1012.6
20260901101508 24 0 0.0 0.0 0.00 0.00 0.00 91 1012.7
20260901100503 24 0 0.0 0.0 0.00 0.00 0.00 91 1012.7
20260901100008 24 0 0.0 0.0 0.00 0.00 0.00 91 1012.7
20260901095503 24 0 0.0 0.0 0.00 0.00 0.00 92 1012.7
20260901095004 24 0 0.0 0.0 0.00 0.00 0.00 92 1012.8
20260901094003 24 0 0.0 0.0 0.00 0.00 0.00 93 1012.8
20260901093503 24 213 0.0 1.6 0.00 0.00 0.00 93 1012.8
20260901093008 24 213 0.0 1.6 0.00 0.00 0.00 94 1012.8
20260901092503 23 0 0.0 0.0 0.00 0.00 0.00 94 1012.9
20260901092003 23 0 0.0 0.0 0.00 0.00 0.00 95 1012.9
20260901091508 23 0 0.0 0.0 0.00 0.00 0.00 96 1012.8
20260901091004 23 0 0.0 0.0 0.00 0.00 0.00 96 1012.8
20260901090504 23 0 0.0 0.0 0.00 0.00 0.00 96 1012.8
20260901090008 23 0 0.0 0.0 0.00 0.00 0.00 96 1012.8
20260901084003 23 0 0.0 0.0 0.00 0.00 0.00 95 1012.7
20260901083503 23 0 0.0 0.0 0.00 0.00 0.00 95 1012.6
20260901083008 23 0 0.0 0.0 0.00 0.00 0.00 95 1012.7
20260901082003 23 0 0.0 0.0 0.00 0.00 0.00 95 1012.6
20260901081508 23 0 0.0 0.0 0.00 0.00 0.00 95 1012.6
20260901080008 23 0 0.0 0.0 0.00 0.00 0.00 94 1012.7
20260901075503 23 0 0.0 0.0 0.00 0.00 0.00 94 1012.8
20260901075004 23 0 0.0 0.0 0.00 0.00 0.00 94 1012.8
20260901074508 23 0 0.0 0.0 0.00 0.00 0.00 94 1012.8
20260901073504 23 0 0.0 0.0 0.00 0.00 0.00 94 1012.8
20260901072503 23 0 0.0 0.0 0.00 0.00 0.00 94 1012.8
20260901071003 23 0 0.0 0.0 0.00 0.00 0.00 94 1012.9
20260901070503 23 0 0.0 0.0 0.00 0.00 0.00 94 1012.9
20260901070008 24 0 0.0 0.0 0.00 0.00 0.00 94 1012.9
20260901065503 23 0 0.0 0.0 0.00 0.00 0.00 94 1013.0
20260901065004 23 0 0.0 0.0 0.00 0.00 0.00 93 1012.9
20260901064508 24 0 0.0 0.0 0.00 0.00 0.00 93 1012.9
20260901064003 24 0 0.0 0.0 0.00 0.00 0.00 93 1013.0
20260901063504 24 0 0.0 0.0 0.00 0.00 0.00 93 1013.0
20260901062503 24 0 0.0 0.0 0.00 0.00 0.00 93 1013.0
20260901061508 24 0 0.0 0.0 0.00 0.00 0.00 93 1013.0
20260901061004 24 0 0.0 0.0 0.00 0.00 0.00 93 1013.1
20260901060503 24 0 0.0 0.0 0.00 0.00 0.00 93 1013.1
20260901060009 24 0 0.0 0.0 0.00 0.00 0.00 93 1013.1
20260901055503 24 0 0.0 0.0 0.00 0.00 0.00 93 1013.1
20260901054003 24 0 0.0 0.0 0.00 0.00 0.00 93 1013.2
20260901053504 24 0 0.0 0.0 0.00 0.00 0.00 92 1013.3
20260901053009 24 0 0.0 0.0 0.00 0.00 0.00 92 1013.3
20260901052503 24 0 0.0 0.0 0.00 0.00 0.00 92 1013.3
20260901052003 25 0 0.0 0.0 0.00 0.00 0.00 92 1013.2
20260901051508 25 0 0.0 0.0 0.00 0.00 0.00 92 1013.2
20260901051004 25 0 0.0 0.0 0.00 0.00 0.00 92 1013.1
20260901050503 25 0 0.0 0.0 0.00 0.00 0.00 91 1013.0
20260901050010 25 0 0.0 0.0 0.00 0.00 0.00 91 1013.1
20260901045003 25 0 0.0 0.0 0.00 0.00 0.00 91 1013.2
20260901044509 25 0 0.0 0.0 0.00 0.00 0.00 91 1013.2
20260901044004 25 0 0.0 0.0 0.00 0.00 0.00 90 1013.2
20260901043503 25 0 0.0 0.0 0.00 0.00 0.00 90 1013.2
20260901043008 25 0 0.0 0.0 0.00 0.00 0.00 90 1013.2
20260901042003 25 0 0.0 0.0 0.00 0.00 0.00 90 1013.2
20260901041003 25 0 0.0 0.0 0.00 0.00 0.00 89 1013.2
20260901040503 25 0 0.0 0.0 0.00 0.00 0.00 89 1013.3
20260901040008 25 0 0.0 0.0 0.00 0.00 0.00 89 1013.2
20260901035504 25 0 0.0 0.0 0.00 0.00 0.00 89 1013.2
20260901035003 25 0 0.0 0.0 0.00 0.00 0.00 88 1013.2
20260901034508 25 0 0.0 0.0 0.00 0.00 0.00 88 1013.1
20260901034003 25 0 0.0 0.0 0.00 0.00 0.00 88 1013.0
20260901032503 25 0 0.0 0.0 0.00 0.00 0.00 87 1012.9
20260901032003 25 0 0.0 0.0 0.00 0.00 0.00 86 1012.9
20260901031004 25 0 0.0 0.0 0.00 0.00 0.00 87 1012.9
20260901030504 26 0 0.0 0.0 0.00 0.00 0.00 86 1012.9
20260901030008 26 0 0.0 0.0 0.00 0.00 0.00 86 1012.9
20260901025503 26 0 0.0 0.0 0.00 0.00 0.00 86 1012.8
20260901025004 26 0 0.0 0.0 0.00 0.00 0.00 86 1012.7
20260901024508 26 0 0.0 0.0 0.00 0.00 0.00 86 1012.7
20260901024003 26 0 0.0 0.0 0.00 0.00 0.00 86 1012.6
20260901023503 26 0 0.0 0.0 0.00 0.00 0.00 85 1012.5
20260901023008 26 0 0.0 0.0 0.00 0.00 0.00 85 1012.5
20260901022504 26 0 0.0 0.0 0.00 0.00 0.00 85 1012.5
20260901022003 26 0 0.0 0.0 0.00 0.00 0.00 84 1012.5
20260901021003 26 0 0.0 0.0 0.00 0.00 0.00 84 1012.3
20260901020503 27 0 0.0 0.0 0.00 0.00 0.00 84 1012.3
20260901020008 27 0 0.0 0.0 0.00 0.00 0.00 84 1012.2
20260901015504 27 0 0.0 0.0 0.00 0.00 0.00 83 1012.2
20260901015004 27 0 0.0 0.0 0.00 0.00 0.00 83 1012.1
20260901014508 27 0 0.0 0.0 0.00 0.00 0.00 83 1012.0
20260901012503 28 0 0.0 0.0 0.00 0.00 0.00 81 1012.0
20260901012004 28 0 0.0 0.0 0.00 0.00 0.00 81 1012.0
20260901011004 28 0 0.0 0.0 0.00 0.00 0.00 80 1012.1
20260901010503 28 0 0.0 0.0 0.00 0.00 0.00 79 1012.1
20260901010009 28 0 0.0 0.0 0.00 0.00 0.00 79 1012.1
20260901005503 29 0 0.0 0.0 0.00 0.00 0.00 78 1012.2
20260901005003 29 0 0.0 0.0 0.00 0.00 0.00 78 1012.2
20260901004508 29 0 0.0 0.0 0.00 0.00 0.00 77 1012.2
20260901004003 30 0 0.0 0.0 0.00 0.00 0.00 76 1012.2
20260901003504 30 0 0.0 0.0 0.00 0.00 0.00 75 1012.3
20260901003008 30 0 0.0 0.0 0.00 0.00 0.00 75 1012.3
20260901002503 30 0 0.0 0.0 0.00 0.00 0.00 74 1012.3
20260901002003 30 0 0.0 0.0 0.00 0.00 0.00 73 1012.3
20260901001003 31 0 0.0 0.0 0.00 0.00 0.00 72 1012.3
20260901000504 31 0 0.0 0.0 0.00 0.00 0.00 72 1012.3
20260901000008 31 0 0.0 0.0 0.00 0.00 0.00 71 1012.3
20260831235503 31 0 0.0 0.0 0.00 0.00 0.00 70 1012.3
20260831234004 31 0 0.0 0.0 0.00 0.00 0.00 74 1012.4
20260831233503 31 164 0.0 3.2 0.00 0.00 0.00 71 1012.3
20260831233008 31 164 0.0 3.2 0.00 0.00 0.00 71 1012.3
20260831232503 31 0 0.0 0.0 0.00 0.00 0.00 72 1012.3
20260831232003 31 0 0.0 0.0 0.00 0.00 0.00 72 1012.4
20260831231508 31 0 0.0 0.0 0.00 0.00 0.00 73 1012.3
20260831230504 31 0 0.0 0.0 0.00 0.00 0.00 74 1012.2
20260831230008 31 0 0.0 0.0 0.00 0.00 0.00 74 1012.3
20260831225503 31 0 0.0 0.0 0.00 0.00 0.00 73 1012.4
20260831225003 31 0 0.0 0.0 0.00 0.00 0.00 73 1012.4
20260831224508 31 181 0.0 1.6 0.00 0.00 0.00 72 1012.2
20260831224003 31 174 0.0 3.2 0.00 0.00 0.00 72 1012.3
20260831223504 31 169 0.0 3.2 0.00 0.00 0.00 71 1012.3
20260831223009 31 163 0.0 3.2 0.00 0.00 0.00 70 1012.3
20260831222003 31 177 1.6 3.2 0.00 0.00 0.00 70 1012.4
20260831220503 31 170 0.0 3.2 0.00 0.00 0.00 71 1012.4
20260831220009 31 168 0.0 3.2 0.00 0.00 0.00 72 1012.5
20260831215503 31 162 0.0 1.6 0.00 0.00 0.00 73 1012.4
20260831215003 31 162 0.0 3.2 0.00 0.00 0.00 73 1012.4
20260831214508 31 164 0.0 3.2 0.00 0.00 0.00 72 1012.4
20260831213503 31 182 3.2 6.4 0.00 0.00 0.00 70 1012.5
20260831213008 31 184 1.6 6.4 0.00 0.00 0.00 70 1012.6
20260831212503 32 189 1.6 4.8 0.00 0.00 0.00 69 1012.6
20260831212004 32 198 0.0 4.8 0.00 0.00 0.00 69 1012.6
20260831211508 32 214 0.0 3.2 0.00 0.00 0.00 71 1012.6
20260831211004 32 201 1.6 3.2 0.00 0.00 0.00 69 1012.5
20260831210008 32 214 1.6 3.2 0.00 0.00 0.00 70 1012.6
20260831205504 32 187 1.6 6.4 0.00 0.00 0.00 70 1012.7
20260831205003 32 187 1.6 6.4 0.00 0.00 0.00 70 1012.7
20260831204003 32 210 1.6 6.4 0.00 0.00 0.00 68 1012.7
20260831203503 32 205 1.6 6.4 0.00 0.00 0.00 69 1012.8
20260831203008 32 218 1.6 3.2 0.00 0.00 0.00 68 1012.9
20260831202004 32 190 1.6 4.8 0.00 0.00 0.00 68 1013.0
20260831201508 32 202 1.6 4.8 0.00 0.00 0.00 68 1012.9
20260831201003 32 188 1.6 4.8 0.00 0.00 0.00 67 1012.9
20260831200503 32 184 1.6 6.4 0.00 0.00 0.00 67 1012.9
20260831195004 33 211 0.0 4.8 0.00 0.00 0.00 64 1012.9
20260831194003 33 183 1.6 4.8 0.00 0.00 0.00 64 1013.0
20260831193503 33 200 1.6 4.8 0.00 0.00 0.00 68 1013.1
20260831193008 32 292 0.0 4.8 0.00 0.00 0.00 67 1013.0
20260831192003 32 185 1.6 6.4 0.00 0.00 0.00 66 1012.9
20260831191003 32 235 0.0 3.2 0.00 0.00 0.00 67 1012.9
20260831190503 32 190 1.6 4.8 0.00 0.00 0.00 66 1012.9
20260831190008 32 206 1.6 4.8 0.00 0.00 0.00 64 1012.9
20260831185004 32 240 1.6 6.4 0.00 0.00 0.00 65 1013.0
20260831184508 32 288 1.6 8.0 0.00 0.00 0.00 65 1013.0
20260831184003 32 322 1.6 8.0 0.00 0.00 0.00 66 1013.0
20260831183504 32 150 0.0 3.2 0.00 0.00 0.00 69 1013.0
20260831183008 31 201 0.0 4.8 0.00 0.00 0.00 66 1013.0
20260831182504 31 195 0.0 4.8 0.00 0.00 0.00 68 1013.0
20260831182004 31 205 0.0 3.2 0.00 0.00 0.00 69 1013.0
20260831181508 31 266 0.0 1.6 0.00 0.00 0.00 68 1013.0
20260831181003 31 181 0.0 3.2 0.00 0.00 0.00 68 1013.0
20260831180009 31 223 1.6 4.8 0.00 0.00 0.00 72 1012.8
20260831175503 30 346 0.0 3.2 0.00 0.00 0.00 71 1012.9
20260831175004 30 349 0.0 3.2 0.00 0.00 0.00 69 1012.9
20260831174508 30 175 0.0 1.6 0.00 0.00 0.00 69 1012.9
20260831174003 30 184 0.0 1.6 0.00 0.00 0.00 70 1012.9
20260831173503 30 190 0.0 1.6 0.00 0.00 0.00 72 1013.0
20260831172504 29 358 0.0 6.4 0.00 0.00 0.00 73 1013.0
20260831171508 28 325 0.0 4.8 0.00 0.00 0.00 74 1012.9
20260831170504 28 302 1.6 6.4 0.00 0.00 0.00 77 1012.8
20260831170008 27 322 1.6 6.4 0.00 0.00 0.00 77 1012.8
20260831165503 27 347 1.6 6.4 0.00 0.00 0.00 77 1012.7
20260831165003 27 1 1.6 8.0 0.00 0.00 0.00 80 1012.7
20260831164508 27 349 1.6 8.0 0.00 0.00 0.00 78 1012.7
20260831164003 27 346 1.6 8.0 0.00 0.00 0.00 79 1012.7
20260831163503 27 343 1.6 8.0 0.00 0.00 0.00 80 1012.7
20260831162503 27 309 0.0 3.2 0.00 0.00 0.00 80 1012.7
20260831162004 26 300 1.6 4.8 0.00 0.00 0.00 81 1012.7
20260831161508 26 288 0.0 4.8 0.00 0.00 0.00 81 1012.7
20260831161003 26 304 0.0 3.2 0.00 0.00 0.00 81 1012.6
20260831160503 26 321 1.6 6.4 0.00 0.00 0.00 82 1012.6
20260831160008 26 338 3.2 6.4 0.00 0.00 0.00 81 1012.3
20260831155504 26 328 3.2 6.4 0.00 0.00 0.00 82 1012.2
20260831155004 26 327 3.2 8.0 0.00 0.00 0.00 82 1012.0
20260831154508 25 326 1.6 8.0 0.00 0.00 0.00 83 1012.1
20260831153503 25 347 1.6 6.4 0.00 0.00 0.00 82 1011.9
20260831153009 25 349 1.6 6.4 0.00 0.00 0.00 82 1012.1
20260831152503 25 325 0.0 4.8 0.00 0.00 0.00 83 1012.2
20260831152003 25 316 1.6 4.8 0.00 0.00 0.00 83 1011.9
20260831151003 25 334 1.6 6.4 0.00 0.00 0.00 84 1012.0
20260831150503 25 323 0.0 6.4 0.00 0.00 0.00 84 1012.0
20260831145504 25 339 0.0 4.8 0.00 0.00 0.00 85 1011.8
20260831145003 25 286 0.0 3.2 0.00 0.00 0.00 86 1011.9
20260831144508 25 0 0.0 0.0 0.00 0.00 0.00 86 1012.2
20260831143503 25 0 0.0 0.0 0.00 0.00 0.00 87 1011.4
20260831143008 25 0 0.0 0.0 0.00 0.00 0.00 88 1011.3
20260831142503 24 0 0.0 0.0 0.00 0.00 0.00 88 1011.4
20260831142003 24 0 0.0 0.0 0.00 0.00 0.00 89 1011.5
20260831141508 24 210 0.0 1.6 0.00 0.00 0.00 89 1011.5
20260831141003 24 210 0.0 1.6 0.00 0.00 0.00 89 1011.8
20260831140503 24 210 0.0 3.2 0.00 0.00 0.00 89 1011.7
20260831140008 24 209 0.0 3.2 0.00 0.00 0.00 90 1011.4
20260831135504 24 172 1.6 4.8 0.00 0.00 0.00 89 1011.3
20260831135003 24 182 1.6 8.0 0.00 0.00 0.00 89 1011.2
20260831134508 24 199 1.6 8.0 0.00 0.00 0.00 89 1010.6
20260831134003 24 326 3.2 14.5 0.00 0.00 0.00 88 1010.6
20260831133503 24 330 3.2 14.5 0.00 0.00 0.00 88 1011.1
20260831133008 24 316 3.2 12.9 0.00 0.00 0.00 88 1011.6
20260831132503 24 319 4.8 12.9 0.00 0.00 0.00 89 1011.9